[[{"header":{"parameterUnit":"m.s-1","parameterCategory":2,"la1":30.2991,"la2":30.254,"lo1":-89.0895,"lo2":-89.0444,"dy":0.0017,"dx":0.0017,"nx":28,"ny":28,"refTime":"2025-06-07T09:00:00:Z","depth":"0","parameterNumber":2,"parameterNumberName":"U-component_of_CURRENTS"},"data":[0,0,0,0,0,0,0,0,0,0,0,0,0,0,0,0,0,0,0,0,0,0,0,0,0,0,0,0,0,0,0,0,0,0,0,0,0,0,0,0,0,0,0,0,0,0,0,0,0,0,0,0,0,0,0,0,0,0,-0.1481,-0.1481,0,-0.1493,-0.1493,-0.1493,-0.1463,-0.1462,-0.1461,-0.1461,-0.1428,-0.1428,-0.1428,0,0,0,0,0,0,0,0,0,0,0,0,0,-0.1457,-0.1457,-0.1481,-0.1481,-0.1481,-0.1493,-0.1493,-0.1493,-0.1463,-0.1462,-0.1461,-0.146,-0.1428,-0.1428,-0.1428,0,0,0,0,0,0,0,0,0,0,0,0,0,-0.1466,-0.1457,-0.1481,-0.147,-0.1469,-0.1493,-0.1493,-0.1493,-0.1463,-0.1462,-0.1461,-0.146,-0.1429,-0.1428,-0.1428,-0.1449,0,0,-0.1427,-0.1427,0,0,0,0,0,0,0,0,-0.1465,-0.1466,-0.1471,-0.147,-0.147,-0.1477,-0.1473,-0.1477,-0.1463,-0.1463,-0.1461,-0.1459,-0.1443,-0.1442,-0.1444,-0.1447,-0.1446,-0.1427,-0.1427,-0.1427,-0.1427,0,0,0,0,0,0,0,-0.1465,-0.1466,-0.1483,-0.1471,-0.1471,-0.1473,-0.1472,-0.1474,-0.1456,-0.1463,-0.1461,-0.1467,-0.1442,-0.1444,-0.1443,-0.1446,-0.1427,-0.1427,-0.1427,-0.1427,-0.1484,-0.1485,0,0,0,0,0,0,-0.1468,-0.1465,-0.1483,-0.1484,-0.1467,-0.1474,-0.1474,-0.1474,-0.1457,-0.1455,-0.1468,-0.1465,-0.1445,-0.1443,-0.1441,-0.1457,-0.1427,-0.1427,-0.1427,-0.1482,-0.1484,-0.1486,0,0,0,0,0,0,-0.1467,-0.1469,-0.1482,-0.1477,-0.1479,-0.1476,-0.1477,-0.1475,-0.1472,-0.1462,-0.1458,-0.1466,-0.1444,-0.1442,-0.1447,-0.1456,-0.1427,-0.1427,-0.148,-0.1483,-0.1485,-0.1494,0,0,0,0,0,0,-0.1466,-0.1469,-0.1467,-0.1477,-0.148,-0.1495,-0.1478,-0.1476,-0.1479,-0.1476,-0.146,-0.1456,-0.1443,-0.1447,-0.1447,-0.1455,-0.1426,-0.1478,-0.1481,-0.1484,-0.1492,-0.1497,-0.1501,0,0,0,0,0,-0.1465,-0.1463,-0.1467,-0.1469,-0.1478,-0.1496,-0.1497,-0.1489,-0.148,-0.1482,-0.1476,-0.1456,-0.1467,-0.1448,-0.1447,-0.1456,-0.1477,-0.148,-0.1484,-0.149,-0.1496,-0.1501,0,0,0,0,0,0,-0.1445,-0.1461,-0.1465,-0.1466,-0.1482,-0.1491,-0.149,-0.1493,-0.1491,-0.1484,-0.1471,-0.1468,-0.1481,-0.1475,-0.1455,-0.1487,-0.1471,-0.1475,-0.1477,-0.1482,-0.1487,-0.1496,-0.1426,0,0,0,0,0,-0.1445,-0.1446,-0.1469,-0.1468,-0.1477,-0.1487,-0.1491,-0.1492,-0.1496,-0.1493,-0.1487,-0.1487,-0.1499,-0.1493,-0.1503,-0.1512,-0.1508,-0.1522,-0.1527,-0.153,-0.1541,-0.1552,-0.1558,-0.1498,-0.1498,-0.1498,0,0,-0.1435,-0.1445,-0.1444,-0.1464,-0.1472,-0.1492,-0.1485,-0.1494,-0.1506,-0.1491,-0.1497,-0.1504,-0.1509,-0.1523,-0.1529,-0.1513,-0.1544,-0.1535,-0.1537,-0.1546,-0.1556,-0.1562,-0.1567,-0.1501,-0.15,-0.15,0,0,-0.1426,-0.1429,-0.1435,-0.1454,-0.1476,-0.1487,-0.1493,-0.151,-0.151,-0.1526,-0.1526,-0.1546,-0.1545,-0.1561,-0.1567,-0.1609,-0.1574,-0.1603,-0.1619,-0.1629,-0.1633,-0.1637,-0.1624,-0.1626,-0.1595,-0.1595,-0.1595,0,-0.1417,-0.1427,-0.144,-0.146,-0.1472,-0.1488,-0.1505,-0.1517,-0.1533,-0.1538,-0.1528,-0.1566,-0.1572,-0.1603,-0.1618,-0.1618,-0.1602,-0.1589,-0.1632,-0.1636,-0.164,-0.1625,-0.1628,-0.1596,-0.1596,-0.1596,-0.1596,0,-0.1424,-0.1435,-0.1439,-0.147,-0.1487,-0.1501,-0.1529,-0.1541,-0.1544,-0.1558,-0.1588,-0.1607,-0.1627,-0.1637,-0.1636,-0.1671,-0.1642,-0.164,-0.161,-0.1646,-0.1629,-0.1631,-0.1597,-0.1597,-0.1597,-0.1596,0,0,-0.1404,-0.1436,-0.144,-0.1453,-0.1492,-0.1505,-0.1531,-0.1559,-0.1569,-0.1596,-0.161,-0.1658,-0.1666,-0.1678,-0.1685,-0.1699,-0.1712,-0.1673,-0.1673,-0.1645,-0.1705,-0.16,-0.1592,-0.1698,-0.1699,-0.17,-0.1675,0,-0.1407,-0.1432,-0.1451,-0.1477,-0.1496,-0.152,-0.1541,-0.1569,-0.1583,-0.1602,-0.164,-0.1659,-0.168,-0.1682,-0.1707,-0.1711,-0.1721,-0.1718,-0.1688,-0.1688,-0.1578,-0.1594,-0.1481,-0.1442,-0.1677,-0.1678,-0.1678,0,-0.1416,-0.1431,-0.1452,-0.1479,-0.1487,-0.1506,-0.1532,-0.1552,-0.159,-0.1599,-0.1636,-0.1654,-0.17,-0.1702,-0.1739,-0.1724,-0.1723,-0.1725,-0.1724,-0.1628,-0.1588,-0.145,-0.1437,-0.1183,-0.1682,-0.1681,-0.1681,0,-0.14,-0.1432,-0.144,-0.1455,-0.1492,-0.15,-0.1514,-0.1549,-0.1557,-0.1594,-0.1596,-0.1654,-0.1663,-0.1695,-0.1711,-0.1715,-0.1727,-0.1732,-0.1643,-0.1634,-0.1537,-0.1517,-0.1265,-0.1761,-0.1761,-0.1761,-0.1762,0,-0.1403,-0.1412,-0.1431,-0.1443,-0.145,-0.1481,-0.1487,-0.1511,-0.1536,-0.1541,-0.159,-0.1595,-0.1658,-0.1672,-0.1699,-0.1665,-0.1719,-0.1647,-0.1624,-0.1535,-0.1516,-0.1291,-0.128,-0.176,-0.1761,-0.1761,-0.1761,0,-0.1393,-0.1406,-0.1419,-0.1442,-0.1446,-0.1451,-0.1463,-0.1465,-0.1491,-0.1497,-0.1505,-0.1542,-0.1546,-0.1595,-0.1627,-0.1619,-0.1553,-0.1598,-0.1473,-0.1436,-0.1097,-0.1096,-0.1173,-0.1162,-0.1486,-0.1483,-0.1481,0,-0.1392,-0.1394,-0.1408,-0.1407,-0.1416,-0.142,-0.1418,-0.1442,-0.1442,-0.1458,-0.1454,-0.1458,-0.1446,-0.1442,-0.1439,-0.144,-0.1443,-0.1321,-0.1322,-0.1045,-0.103,-0.1216,-0.1216,-0.1198,-0.1193,-0.119,-0.1187,0,-0.138,-0.1378,-0.1382,-0.138,-0.1375,-0.1367,-0.1364,-0.136,-0.1379,-0.1374,-0.1348,-0.1334,-0.1307,-0.1229,-0.1214,-0.122,-0.122,-0.1243,-0.0999,-0.0817,-0.097,-0.0954,-0.123,-0.1155,-0.1158,-0.116,-0.1162,-0.1163,-0.1356,-0.1349,-0.1342,-0.1331,-0.1328,-0.1303,-0.1267,-0.1273,-0.1251,-0.1222,-0.124,-0.1166,-0.1029,-0.0978,-0.0934,-0.0682,-0.0988,-0.0609,-0.0643,-0.0864,-0.0818,-0.1002,-0.0872,-0.0873,-0.0875,-0.0876,-0.0877,0,-0.1312,-0.1295,-0.1289,-0.1262,-0.1223,-0.1241,-0.1216,-0.1168,-0.1118,-0.1096,-0.1057,-0.0833,-0.0652,-0.05,-0.0213,-0.0051,-0.0226,-0.0007,-0.0178,-0.0217,-0.0339,-0.0269,0.0052,0.0052,0.0051,0.0051,0.0051,0.0051,-0.1285,-0.1247,-0.1236,-0.1151,-0.1128,-0.1039,-0.1005,-0.0967,-0.0928,-0.0778,-0.0645,-0.0564,-0.021,0.0242,0.0608,0.0574,0.0497,0.0351,0.0305,0.0403,0.0347,0.0293,0.0376,0.0827,0.0827,0.0412,0.0411,0.041]},{"header":{"parameterUnit":"m.s-1","parameterCategory":2,"la1":30.2991,"la2":30.254,"lo1":-89.0895,"lo2":-89.0444,"dy":0.0017,"dx":0.0017,"nx":28,"ny":28,"refTime":"2025-06-07T09:00:00:Z","depth":"0","parameterNumber":3,"parameterNumberName":"V-component_of_CURRENTS"},"data":[0,0,0,0,0,0,0,0,0,0,0,0,0,0,0,0,0,0,0,0,0,0,0,0,0,0,0,0,0,0,0,0,0,0,0,0,0,0,0,0,0,0,0,0,0,0,0,0,0,0,0,0,0,0,0,0,0,0,-0.0892,-0.0893,0,-0.0943,-0.0943,-0.0943,-0.0926,-0.0925,-0.0924,-0.0924,-0.0842,-0.084,-0.0839,0,0,0,0,0,0,0,0,0,0,0,0,0,-0.0809,-0.081,-0.0892,-0.0893,-0.0894,-0.0943,-0.0943,-0.0943,-0.0926,-0.0925,-0.0924,-0.0923,-0.0842,-0.084,-0.0838,0,0,0,0,0,0,0,0,0,0,0,0,0,-0.0846,-0.0811,-0.0892,-0.0895,-0.0896,-0.0943,-0.0943,-0.0943,-0.0926,-0.0925,-0.0924,-0.0923,-0.0843,-0.0841,-0.0838,-0.0842,0,0,-0.0831,-0.083,0,0,0,0,0,0,0,0,-0.0844,-0.0848,-0.0893,-0.0895,-0.0897,-0.0932,-0.0884,-0.0905,-0.0926,-0.0909,-0.0924,-0.0923,-0.0864,-0.0859,-0.0865,-0.0839,-0.0835,-0.0831,-0.0829,-0.0828,-0.0827,0,0,0,0,0,0,0,-0.0841,-0.0846,-0.0907,-0.0895,-0.0897,-0.0905,-0.0908,-0.0888,-0.0884,-0.091,-0.0911,-0.0925,-0.0863,-0.0868,-0.0863,-0.0834,-0.0831,-0.0829,-0.0827,-0.0826,-0.0809,-0.081,0,0,0,0,0,0,-0.0846,-0.0844,-0.0905,-0.0909,-0.0873,-0.0907,-0.0911,-0.0917,-0.0888,-0.0885,-0.0926,-0.0924,-0.0872,-0.0866,-0.086,-0.0865,-0.0828,-0.0826,-0.0825,-0.0808,-0.081,-0.0811,0,0,0,0,0,0,-0.0843,-0.085,-0.0903,-0.0882,-0.089,-0.091,-0.0917,-0.0919,-0.0923,-0.0902,-0.0895,-0.0929,-0.0871,-0.0863,-0.0849,-0.0862,-0.0825,-0.0823,-0.0807,-0.0809,-0.081,-0.0874,0,0,0,0,0,0,-0.0841,-0.0849,-0.0852,-0.0882,-0.0892,-0.0934,-0.0919,-0.092,-0.0936,-0.0934,-0.0902,-0.0894,-0.087,-0.0853,-0.0847,-0.0858,-0.0821,-0.0806,-0.0808,-0.081,-0.0871,-0.0878,-0.0884,0,0,0,0,0,-0.0837,-0.0852,-0.0851,-0.0859,-0.0895,-0.0936,-0.0941,-0.0949,-0.0937,-0.0946,-0.0925,-0.0895,-0.086,-0.0852,-0.0844,-0.0855,-0.0805,-0.0807,-0.081,-0.0868,-0.0876,-0.0883,0,0,0,0,0,0,-0.0821,-0.0853,-0.0853,-0.0876,-0.0905,-0.0935,-0.0952,-0.0952,-0.0946,-0.0937,-0.0905,-0.0897,-0.089,-0.0866,-0.0858,-0.0857,-0.0828,-0.0829,-0.0875,-0.0883,-0.0889,-0.0909,-0.0819,0,0,0,0,0,-0.0819,-0.0833,-0.0869,-0.0887,-0.0905,-0.0926,-0.0942,-0.0947,-0.0953,-0.0949,-0.093,-0.0908,-0.0896,-0.0884,-0.0867,-0.0865,-0.0852,-0.0868,-0.0874,-0.088,-0.0892,-0.0884,-0.0891,-0.0818,-0.0818,-0.0818,0,0,-0.082,-0.0839,-0.0848,-0.0884,-0.0906,-0.094,-0.0932,-0.0962,-0.0983,-0.0939,-0.095,-0.0928,-0.09,-0.0902,-0.0896,-0.0881,-0.0896,-0.0883,-0.0888,-0.0897,-0.0888,-0.0895,-0.0901,-0.082,-0.0819,-0.0819,0,0,-0.0838,-0.0846,-0.0868,-0.0894,-0.0934,-0.0951,-0.0961,-0.0991,-0.0996,-0.1007,-0.0983,-0.0978,-0.0951,-0.0947,-0.0937,-0.097,-0.0931,-0.0955,-0.1001,-0.0993,-0.0999,-0.1004,-0.1007,-0.1012,-0.0957,-0.0957,-0.0957,0,-0.0835,-0.0866,-0.0883,-0.0916,-0.0943,-0.0957,-0.0993,-0.1009,-0.1026,-0.1036,-0.1015,-0.1004,-0.098,-0.0992,-0.1004,-0.0986,-0.0972,-0.0972,-0.1002,-0.1006,-0.101,-0.1012,-0.1016,-0.0961,-0.096,-0.096,-0.0959,0,-0.0876,-0.0899,-0.0921,-0.0961,-0.099,-0.1025,-0.1057,-0.1075,-0.1077,-0.1088,-0.11,-0.1077,-0.1071,-0.1063,-0.1041,-0.1062,-0.1041,-0.1011,-0.0983,-0.1022,-0.1021,-0.1024,-0.0965,-0.0964,-0.0963,-0.0962,0,0,-0.087,-0.0935,-0.0941,-0.0967,-0.1016,-0.1047,-0.1087,-0.1131,-0.1153,-0.116,-0.1186,-0.1178,-0.1164,-0.1154,-0.1128,-0.1125,-0.1144,-0.1082,-0.1079,-0.1087,-0.1131,-0.1094,-0.1094,-0.1109,-0.111,-0.111,-0.1122,0,-0.0896,-0.0962,-0.0986,-0.1044,-0.1084,-0.111,-0.1146,-0.118,-0.1197,-0.1222,-0.1218,-0.1223,-0.1199,-0.1189,-0.1189,-0.1145,-0.1155,-0.1145,-0.1091,-0.109,-0.1053,-0.1097,-0.1047,-0.1051,-0.1126,-0.1126,-0.1126,0,-0.093,-0.0967,-0.1033,-0.109,-0.1109,-0.114,-0.1199,-0.1231,-0.127,-0.1278,-0.1295,-0.1283,-0.1293,-0.1255,-0.1236,-0.1224,-0.1195,-0.1165,-0.1164,-0.111,-0.106,-0.1021,-0.1054,-0.0829,-0.1131,-0.1131,-0.1131,0,-0.0933,-0.1,-0.1051,-0.1074,-0.114,-0.1168,-0.1199,-0.1246,-0.1273,-0.1311,-0.1321,-0.1335,-0.1321,-0.1302,-0.1256,-0.1239,-0.1225,-0.1189,-0.1141,-0.1138,-0.1077,-0.1067,-0.0888,-0.1191,-0.1191,-0.1191,-0.1191,0,-0.096,-0.0995,-0.1055,-0.1085,-0.1136,-0.1174,-0.1225,-0.1259,-0.1297,-0.1327,-0.1342,-0.1354,-0.1325,-0.1314,-0.1281,-0.1227,-0.1248,-0.1166,-0.1142,-0.1099,-0.1091,-0.0877,-0.0787,-0.1192,-0.1192,-0.1192,-0.1192,0,-0.0961,-0.1004,-0.106,-0.1124,-0.1145,-0.118,-0.1238,-0.1271,-0.13,-0.1337,-0.1347,-0.136,-0.1351,-0.1336,-0.1295,-0.124,-0.1103,-0.1183,-0.1142,-0.1113,-0.0843,-0.0761,-0.0708,-0.0609,-0.1129,-0.1128,-0.1128,0,-0.0965,-0.0999,-0.1079,-0.1112,-0.1141,-0.1192,-0.1228,-0.1274,-0.1304,-0.1337,-0.1352,-0.1357,-0.137,-0.1316,-0.1258,-0.1221,-0.1079,-0.1093,-0.1054,-0.083,-0.072,-0.074,-0.0662,-0.1005,-0.1003,-0.1002,-0.1001,0,-0.0959,-0.0994,-0.1039,-0.1109,-0.1156,-0.1208,-0.1256,-0.1281,-0.1325,-0.1347,-0.1363,-0.1373,-0.1349,-0.1306,-0.1246,-0.1169,-0.0934,-0.1063,-0.0835,-0.0619,-0.0627,-0.0519,-0.0998,-0.0989,-0.099,-0.0991,-0.0992,-0.0992,-0.0936,-0.0968,-0.1031,-0.1089,-0.1151,-0.1202,-0.1226,-0.1271,-0.1306,-0.1318,-0.1352,-0.1315,-0.127,-0.12,-0.109,-0.0763,-0.0868,-0.064,-0.0568,-0.0616,-0.0489,-0.095,-0.0904,-0.0904,-0.0905,-0.0906,-0.0906,0,-0.0887,-0.0937,-0.1,-0.107,-0.1118,-0.1162,-0.1226,-0.123,-0.1249,-0.1245,-0.1259,-0.1106,-0.1047,-0.087,-0.0593,-0.032,-0.0254,-0.0139,-0.0106,-0.0053,-0.0445,-0.0397,-0.0232,-0.0232,-0.0233,-0.0233,-0.0233,-0.0233,-0.086,-0.0903,-0.0944,-0.1003,-0.1054,-0.1095,-0.112,-0.1135,-0.1122,-0.0997,-0.0858,-0.0763,-0.0424,-0.0279,0.0116,0.021,0.0446,0.0386,0.0499,0.0323,0.0283,0.0246,0.0317,0.0628,0.0629,0.086,0.0863,0.0866]}],[{"header":{"parameterUnit":"m.s-1","parameterCategory":2,"la1":30.2991,"la2":30.254,"lo1":-89.0895,"lo2":-89.0444,"dy":0.0017,"dx":0.0017,"nx":28,"ny":28,"refTime":"2025-06-07T09:00:00:Z","depth":"2","parameterNumber":2,"parameterNumberName":"U-component_of_CURRENTS"},"data":[0,0,0,0,0,0,0,0,0,0,0,0,0,0,0,0,0,0,0,0,0,0,0,0,0,0,0,0,0,0,0,0,0,0,0,0,0,0,0,0,0,0,0,0,0,0,0,0,0,0,0,0,0,0,0,0,0,0,-0.2213,-0.2215,0,-0.2335,-0.2336,-0.2337,-0.2423,-0.2424,-0.2426,-0.2427,-0.2371,-0.2369,-0.2366,0,0,0,0,0,0,0,0,0,0,0,0,0,-0.2235,-0.2232,-0.2213,-0.2215,-0.2217,-0.2335,-0.2336,-0.2337,-0.2423,-0.2424,-0.2426,-0.2427,-0.2372,-0.2369,-0.2366,0,0,0,0,0,0,0,0,0,0,0,0,0,-0.2272,-0.2231,-0.2213,-0.2278,-0.2286,-0.2335,-0.2336,-0.2338,-0.2423,-0.2424,-0.2426,-0.2428,-0.2373,-0.2369,-0.2366,-0.2305,0,0,-0.2354,-0.2352,0,0,0,0,0,0,0,0,-0.2269,-0.227,-0.2267,-0.2274,-0.2283,-0.2371,-0.2325,-0.232,-0.2422,-0.2364,-0.2427,-0.2429,-0.2357,-0.2355,-0.2368,-0.2302,-0.23,-0.2353,-0.2351,-0.2349,-0.2348,0,0,0,0,0,0,0,-0.2266,-0.2266,-0.2255,-0.2269,-0.2279,-0.2365,-0.2369,-0.2325,-0.2341,-0.2369,-0.2378,-0.24,-0.236,-0.2371,-0.2367,-0.2299,-0.2353,-0.235,-0.2347,-0.2346,-0.2156,-0.2153,0,0,0,0,0,0,-0.2251,-0.2262,-0.2252,-0.226,-0.2287,-0.2362,-0.2368,-0.2336,-0.2346,-0.2352,-0.2398,-0.2404,-0.2377,-0.2371,-0.2365,-0.2285,-0.2349,-0.2345,-0.2343,-0.2159,-0.2155,-0.2152,0,0,0,0,0,0,-0.225,-0.2246,-0.2247,-0.2273,-0.228,-0.2359,-0.2324,-0.2337,-0.2378,-0.2371,-0.2373,-0.243,-0.2378,-0.237,-0.2327,-0.2284,-0.2344,-0.234,-0.2162,-0.2158,-0.2154,-0.213,0,0,0,0,0,0,-0.2249,-0.2243,-0.224,-0.2269,-0.2278,-0.2266,-0.2323,-0.2339,-0.2391,-0.2399,-0.2396,-0.2393,-0.2379,-0.2333,-0.2323,-0.228,-0.2337,-0.2165,-0.216,-0.2155,-0.2134,-0.2126,-0.2118,0,0,0,0,0,-0.2248,-0.2235,-0.2237,-0.2239,-0.2258,-0.2265,-0.2276,-0.2339,-0.2391,-0.2387,-0.239,-0.2394,-0.2293,-0.2328,-0.2317,-0.2271,-0.2168,-0.2161,-0.2156,-0.2138,-0.2127,-0.2119,0,0,0,0,0,0,-0.2272,-0.2243,-0.2247,-0.2232,-0.2242,-0.2282,-0.2322,-0.2347,-0.2354,-0.2391,-0.2368,-0.2361,-0.2307,-0.2285,-0.2324,-0.2197,-0.2226,-0.2218,-0.2217,-0.2206,-0.2199,-0.2219,-0.2334,0,0,0,0,0,-0.2263,-0.2234,-0.2227,-0.2226,-0.2233,-0.2277,-0.2304,-0.2341,-0.2351,-0.2363,-0.2347,-0.2322,-0.2266,-0.2239,-0.22,-0.2131,-0.2124,-0.2089,-0.2081,-0.2074,-0.208,-0.2078,-0.2073,-0.2132,-0.2133,-0.2133,0,0,-0.2292,-0.2266,-0.2263,-0.2229,-0.2261,-0.2233,-0.2297,-0.2349,-0.2316,-0.2348,-0.2311,-0.2305,-0.2245,-0.2174,-0.2145,-0.2154,-0.2034,-0.2067,-0.2062,-0.2071,-0.2072,-0.2067,-0.2062,-0.2128,-0.2129,-0.213,0,0,-0.2301,-0.2292,-0.2259,-0.2247,-0.2273,-0.2267,-0.2275,-0.2303,-0.231,-0.2275,-0.2278,-0.225,-0.2175,-0.2119,-0.2078,-0.1995,-0.2004,-0.1978,-0.1945,-0.1943,-0.1939,-0.1937,-0.1853,-0.1843,-0.1963,-0.1963,-0.1963,0,-0.234,-0.2267,-0.2265,-0.2224,-0.2216,-0.2264,-0.2229,-0.2222,-0.2229,-0.2223,-0.226,-0.2183,-0.2139,-0.2033,-0.2002,-0.1978,-0.197,-0.1992,-0.1938,-0.1935,-0.1933,-0.1849,-0.1839,-0.1961,-0.1961,-0.1962,-0.1962,0,-0.2308,-0.2255,-0.2252,-0.217,-0.2153,-0.2157,-0.2125,-0.2123,-0.2148,-0.2144,-0.2106,-0.2077,-0.2038,-0.1996,-0.1971,-0.1906,-0.1898,-0.1944,-0.1977,-0.1927,-0.1838,-0.1828,-0.1959,-0.1959,-0.196,-0.196,0,0,-0.2328,-0.2242,-0.2236,-0.2174,-0.2131,-0.2104,-0.2053,-0.2,-0.2003,-0.2003,-0.198,-0.1891,-0.1953,-0.1909,-0.1889,-0.1868,-0.1807,-0.1901,-0.1902,-0.1841,-0.1759,-0.1636,-0.1613,-0.1877,-0.1877,-0.1877,-0.1682,0,-0.2293,-0.2196,-0.2159,-0.2055,-0.1982,-0.1991,-0.1932,-0.191,-0.192,-0.1911,-0.19,-0.1876,-0.1889,-0.19,-0.1882,-0.1833,-0.1791,-0.1852,-0.1797,-0.1792,-0.1713,-0.1602,-0.1512,-0.1325,-0.1672,-0.167,-0.1669,0,-0.2235,-0.215,-0.2063,-0.195,-0.1935,-0.1901,-0.1854,-0.1824,-0.1822,-0.1844,-0.1861,-0.1875,-0.1799,-0.1866,-0.1766,-0.1819,-0.1788,-0.1758,-0.1752,-0.165,-0.1653,-0.1441,-0.1293,-0.1652,-0.1653,-0.1654,-0.1656,0,-0.2182,-0.2069,-0.1991,-0.1957,-0.1856,-0.1847,-0.1832,-0.1829,-0.1796,-0.183,-0.1816,-0.1809,-0.1764,-0.1769,-0.1688,-0.1747,-0.1592,-0.1663,-0.1507,-0.1495,-0.1409,-0.139,-0.1619,-0.162,-0.162,-0.1621,-0.1621,0,-0.2105,-0.2031,-0.1978,-0.192,-0.1838,-0.1825,-0.1795,-0.18,-0.1807,-0.1754,-0.1802,-0.1733,-0.1755,-0.1666,-0.1659,-0.1503,-0.1561,-0.1462,-0.1439,-0.1384,-0.1367,-0.1673,-0.1681,-0.1613,-0.1615,-0.1616,-0.1617,0,-0.2049,-0.202,-0.1894,-0.1817,-0.18,-0.1762,-0.1732,-0.171,-0.1747,-0.1682,-0.1673,-0.1621,-0.1507,-0.1478,-0.1418,-0.1391,-0.1312,-0.1257,-0.1139,-0.1106,-0.122,-0.123,-0.1054,-0.1048,-0.1043,-0.1039,-0.1035,0,-0.2007,-0.1948,-0.1837,-0.1755,-0.1727,-0.1683,-0.1647,-0.1676,-0.1649,-0.1583,-0.152,-0.1404,-0.1288,-0.1108,-0.106,-0.0968,-0.1107,-0.0844,-0.0944,-0.1167,-0.1164,-0.1181,-0.1197,-0.0785,-0.078,-0.0775,-0.0772,0,-0.1897,-0.19,-0.1801,-0.1665,-0.1594,-0.1519,-0.1495,-0.146,-0.1483,-0.1407,-0.1292,-0.1201,-0.0997,-0.0839,-0.0718,-0.0683,-0.0861,-0.0749,-0.1011,-0.0951,-0.0901,-0.0903,-0.0929,-0.0734,-0.0737,-0.074,-0.0742,-0.0744,-0.185,-0.1763,-0.1674,-0.1531,-0.1465,-0.1413,-0.1353,-0.1327,-0.127,-0.1178,-0.1118,-0.0947,-0.082,-0.0577,-0.0489,-0.0438,-0.0523,-0.0544,-0.0563,-0.0586,-0.0599,-0.0545,-0.0306,-0.0307,-0.0308,-0.031,-0.031,0,-0.1755,-0.1673,-0.1533,-0.1404,-0.1331,-0.1334,-0.1263,-0.1188,-0.1118,-0.1032,-0.0928,-0.0669,-0.0507,-0.041,-0.025,-0.0188,-0.0258,-0.0196,-0.0314,-0.0348,-0.038,-0.0391,-0.0039,-0.0038,-0.0038,-0.0038,0,0,-0.1696,-0.1556,-0.1462,-0.1304,-0.1249,-0.1157,-0.111,-0.0998,-0.0921,-0.0756,-0.0648,-0.0599,-0.0457,-0.0306,-0.0205,-0.0117,-0.0269,-0.0104,-0.0316,-0.0497,-0.053,-0.0553,-0.0603,0,0,0,0,0]},{"header":{"parameterUnit":"m.s-1","parameterCategory":2,"la1":30.2991,"la2":30.254,"lo1":-89.0895,"lo2":-89.0444,"dy":0.0017,"dx":0.0017,"nx":28,"ny":28,"refTime":"2025-06-07T09:00:00:Z","depth":"2","parameterNumber":3,"parameterNumberName":"V-component_of_CURRENTS"},"data":[0,0,0,0,0,0,0,0,0,0,0,0,0,0,0,0,0,0,0,0,0,0,0,0,0,0,0,0,0,0,0,0,0,0,0,0,0,0,0,0,0,0,0,0,0,0,0,0,0,0,0,0,0,0,0,0,0,0,0.0231,0.0233,0,0.044,0.0442,0.0445,0.0598,0.0599,0.06,0.06,0.0826,0.0831,0.0837,0,0,0,0,0,0,0,0,0,0,0,0,0,0.015,0.015,0.0231,0.0233,0.0235,0.0439,0.0443,0.0446,0.0598,0.0599,0.06,0.0601,0.0825,0.0831,0.0837,0,0,0,0,0,0,0,0,0,0,0,0,0,0.0258,0.015,0.0231,0.0332,0.0343,0.0439,0.0443,0.0447,0.0598,0.0599,0.06,0.0601,0.0823,0.083,0.0838,0.086,0,0,0.0862,0.0865,0,0,0,0,0,0,0,0,0.0252,0.0262,0.0315,0.0325,0.0338,0.049,0.0497,0.0584,0.0597,0.0506,0.06,0.0602,0.0711,0.0728,0.0771,0.087,0.088,0.0862,0.0867,0.087,0.0873,0,0,0,0,0,0,0,0.0244,0.0255,0.0319,0.0317,0.0331,0.0431,0.0446,0.0515,0.0603,0.0514,0.0524,0.054,0.0719,0.0763,0.0778,0.0883,0.0862,0.0869,0.0874,0.0877,0.1003,0.1002,0,0,0,0,0,0,0.0197,0.0246,0.0312,0.0324,0.0292,0.043,0.0448,0.0444,0.0602,0.0626,0.0538,0.0546,0.0749,0.0768,0.0786,0.0797,0.087,0.0878,0.0882,0.1005,0.1003,0.1002,0,0,0,0,0,0,0.0194,0.02,0.0303,0.0288,0.0307,0.0428,0.0424,0.0447,0.0506,0.0619,0.0645,0.0574,0.0751,0.0775,0.0848,0.0808,0.0881,0.0888,0.1006,0.1004,0.1002,0.0835,0,0,0,0,0,0,0.0191,0.0197,0.019,0.0283,0.0306,0.0336,0.0423,0.045,0.051,0.0523,0.0658,0.068,0.0754,0.0835,0.0855,0.082,0.0894,0.1008,0.1005,0.1003,0.0842,0.0827,0.0815,0,0,0,0,0,0.0187,0.0166,0.0187,0.0196,0.0287,0.0334,0.0355,0.0451,0.051,0.0515,0.0617,0.0677,0.0833,0.0841,0.0865,0.0831,0.1009,0.1006,0.1003,0.0848,0.083,0.0815,0,0,0,0,0,0,0.0138,0.0182,0.0207,0.0204,0.0251,0.0358,0.0386,0.0447,0.0536,0.0569,0.0676,0.0703,0.0752,0.0815,0.0821,0.0859,0.0924,0.0926,0.0798,0.0782,0.0769,0.0742,0.0901,0,0,0,0,0,0.0114,0.0111,0.0165,0.0167,0.0185,0.0285,0.0325,0.0388,0.0474,0.0518,0.0604,0.0695,0.0755,0.0788,0.0863,0.0886,0.0959,0.0875,0.0862,0.0849,0.0843,0.0939,0.0933,0.0992,0.0992,0.0992,0,0,0.0102,0.0124,0.0127,0.0157,0.0215,0.0232,0.0314,0.0371,0.0386,0.0526,0.0582,0.0664,0.0756,0.0786,0.0809,0.0833,0.0862,0.0846,0.0834,0.0835,0.0935,0.093,0.0925,0.099,0.099,0.0991,0,0,0.0073,0.0087,0.0075,0.0105,0.0167,0.0212,0.0217,0.0312,0.035,0.0412,0.0503,0.0549,0.0668,0.0695,0.0731,0.0684,0.0798,0.0714,0.0613,0.0704,0.07,0.0698,0.0742,0.0745,0.0693,0.0692,0.0692,0,0.0057,0.005,0.0081,0.0085,0.011,0.0189,0.0193,0.0229,0.0336,0.0352,0.041,0.0556,0.0614,0.063,0.0601,0.0648,0.0728,0.0663,0.0686,0.0685,0.0686,0.0733,0.0739,0.0684,0.0685,0.0686,0.0686,0,0.0029,0.0028,0.0028,0.0043,0.0059,0.0086,0.012,0.0139,0.0202,0.0252,0.0304,0.0394,0.0484,0.0479,0.0527,0.0535,0.0597,0.0668,0.0723,0.067,0.0722,0.0731,0.0672,0.0675,0.0677,0.0679,0,0,-0.0026,0.0002,0.0001,0.0003,0.0049,0.0056,0.0047,0.0057,0.0086,0.0144,0.0191,0.022,0.0298,0.0342,0.0402,0.0436,0.0465,0.0539,0.0548,0.0574,0.066,0.0624,0.0631,0.0571,0.0572,0.0574,0.0681,0,-0.0053,-0.0065,-0.0045,-0.0057,-0.006,-0.0017,-0.0027,-0.0009,0.0051,0.0112,0.015,0.0237,0.0237,0.031,0.0332,0.0472,0.049,0.0429,0.0717,0.0724,0.0693,0.0641,0.0604,0.0692,0.069,0.0692,0.0693,0,-0.0095,-0.0097,-0.0111,-0.0105,-0.0102,-0.0096,-0.0078,-0.0063,-0.0002,0.0053,0.0116,0.0212,0.0239,0.0297,0.0425,0.0408,0.0505,0.0584,0.0593,0.0629,0.0705,0.0756,0.071,0.0709,0.0708,0.0707,0.0706,0,-0.0155,-0.0154,-0.0169,-0.0158,-0.0138,-0.0141,-0.0121,-0.0074,-0.0058,0.0053,0.011,0.0193,0.027,0.0393,0.0496,0.0511,0.0669,0.0729,0.0763,0.0762,0.0817,0.0817,0.0822,0.0822,0.0821,0.0821,0.0821,0,-0.0192,-0.0209,-0.0189,-0.0188,-0.0207,-0.0168,-0.0151,-0.0116,-0.0035,-0.0007,0.0099,0.0147,0.0311,0.041,0.0519,0.064,0.0688,0.0729,0.0788,0.075,0.0744,0.0844,0.0845,0.0825,0.0824,0.0823,0.0823,0,-0.0241,-0.0226,-0.0249,-0.0232,-0.0228,-0.0229,-0.0187,-0.0171,-0.0082,-0.0021,0.0013,0.0129,0.0254,0.038,0.0588,0.0656,0.0796,0.0825,0.0729,0.0773,0.0824,0.0815,0.0903,0.0903,0.0903,0.0902,0.0902,0,-0.0262,-0.0273,-0.028,-0.0296,-0.0278,-0.0271,-0.0272,-0.0202,-0.0178,-0.0057,-0.0041,0.0097,0.0172,0.0415,0.0602,0.0786,0.0772,0.0823,0.0819,0.0783,0.0834,0.0825,0.0817,0.0822,0.0821,0.0821,0.082,0,-0.0294,-0.0293,-0.03,-0.0334,-0.0345,-0.0362,-0.0341,-0.0331,-0.0246,-0.0186,-0.0097,-0.0009,0.0212,0.0406,0.0624,0.0715,0.0794,0.0813,0.0854,0.0785,0.0711,0.0758,0.0753,0.0814,0.0815,0.0815,0.0815,0.0816,-0.0311,-0.0324,-0.0333,-0.0371,-0.0395,-0.0415,-0.0401,-0.0373,-0.0322,-0.0166,-0.0117,0.0113,0.0227,0.0615,0.0654,0.0747,0.08,0.0815,0.0817,0.082,0.0769,0.0696,0.0785,0.0786,0.0786,0.0786,0.0787,0,-0.0322,-0.0335,-0.0373,-0.04,-0.0436,-0.0436,-0.043,-0.038,-0.0299,-0.0153,-0.0012,0.0252,0.0448,0.0575,0.0737,0.0775,0.077,0.0721,0.0712,0.0719,0.0725,0.0668,0.0659,0.0658,0.0658,0.0657,0,0,-0.0326,-0.0348,-0.0371,-0.0427,-0.0443,-0.0432,-0.0414,-0.0327,-0.0214,-0.0037,0.0191,0.0452,0.0565,0.0646,0.0622,0.0643,0.065,0.0617,0.0719,0.0708,0.0712,0.0785,0.0705,0,0,0,0,0]}],[{"header":{"parameterUnit":"m.s-1","parameterCategory":2,"la1":30.2991,"la2":30.254,"lo1":-89.0895,"lo2":-89.0444,"dy":0.0017,"dx":0.0017,"nx":28,"ny":28,"refTime":"2025-06-07T09:00:00:Z","depth":"4","parameterNumber":2,"parameterNumberName":"U-component_of_CURRENTS"},"data":[0,0,0,0,0,0,0,0,0,0,0,0,0,0,0,0,0,0,0,0,0,0,0,0,0,0,0,0,0,0,0,0,0,0,0,0,0,0,0,0,0,0,0,0,0,0,0,0,0,0,0,0,0,0,0,0,0,0,-0.0884,-0.0885,0,-0.0946,-0.0947,-0.0947,-0.0951,-0.0951,-0.095,-0.0949,-0.0981,-0.0982,-0.0984,0,0,0,0,0,0,0,0,0,0,0,0,0,-0.0761,-0.0763,-0.0884,-0.0885,-0.0886,-0.0946,-0.0947,-0.0947,-0.0951,-0.0951,-0.095,-0.0949,-0.098,-0.0982,-0.0984,0,0,0,0,0,0,0,0,0,0,0,0,0,-0.0817,-0.0764,-0.0884,-0.0895,-0.0897,-0.0946,-0.0947,-0.0948,-0.0951,-0.0951,-0.095,-0.0949,-0.098,-0.0982,-0.0984,-0.1017,0,0,-0.099,-0.0991,0,0,0,0,0,0,0,0,-0.0814,-0.0821,-0.0893,-0.0895,-0.0897,-0.094,-0.0915,-0.0969,-0.0952,-0.093,-0.0949,-0.0948,-0.0966,-0.0969,-0.0982,-0.1018,-0.1019,-0.0991,-0.0992,-0.0993,-0.0994,0,0,0,0,0,0,0,-0.081,-0.0819,-0.0908,-0.0894,-0.0896,-0.0895,-0.0901,-0.0925,-0.0951,-0.0932,-0.0933,-0.0941,-0.0966,-0.098,-0.0983,-0.102,-0.0991,-0.0993,-0.0994,-0.0995,-0.1069,-0.107,0,0,0,0,0,0,-0.0806,-0.0816,-0.0906,-0.091,-0.0853,-0.0898,-0.0905,-0.0927,-0.0952,-0.0955,-0.0942,-0.0941,-0.0977,-0.098,-0.0984,-0.1028,-0.0993,-0.0995,-0.0996,-0.1069,-0.1069,-0.107,0,0,0,0,0,0,-0.0803,-0.0814,-0.0903,-0.0863,-0.0875,-0.0901,-0.0925,-0.0929,-0.0953,-0.096,-0.0962,-0.0963,-0.0976,-0.0981,-0.1006,-0.1029,-0.0996,-0.0998,-0.1068,-0.1069,-0.107,-0.1114,0,0,0,0,0,0,-0.0799,-0.0813,-0.0834,-0.0864,-0.0877,-0.0926,-0.0926,-0.093,-0.0959,-0.0959,-0.0979,-0.098,-0.0976,-0.1003,-0.1008,-0.1031,-0.1,-0.1067,-0.1068,-0.1069,-0.1112,-0.1116,-0.112,0,0,0,0,0,-0.0795,-0.0823,-0.0835,-0.0846,-0.0904,-0.0926,-0.0932,-0.0947,-0.0961,-0.0967,-0.0984,-0.098,-0.1014,-0.1006,-0.1012,-0.1036,-0.1066,-0.1068,-0.1069,-0.111,-0.1115,-0.112,0,0,0,0,0,0,-0.0782,-0.0827,-0.0841,-0.0882,-0.09,-0.0927,-0.0944,-0.096,-0.0982,-0.0985,-0.0995,-0.0998,-0.1028,-0.1026,-0.1016,-0.1059,-0.1038,-0.1041,-0.1066,-0.1072,-0.1076,-0.1068,-0.1001,0,0,0,0,0,-0.0791,-0.0821,-0.0854,-0.0885,-0.09,-0.0929,-0.0946,-0.0953,-0.0974,-0.0984,-0.1002,-0.1019,-0.104,-0.105,-0.1062,-0.1093,-0.1073,-0.111,-0.1114,-0.1118,-0.1115,-0.1103,-0.1106,-0.1075,-0.1075,-0.1075,0,0,-0.0791,-0.0823,-0.0838,-0.0884,-0.0906,-0.093,-0.0936,-0.0959,-0.0985,-0.0985,-0.1029,-0.1039,-0.1052,-0.1079,-0.1092,-0.1081,-0.1116,-0.112,-0.1123,-0.1118,-0.1105,-0.1108,-0.1111,-0.1076,-0.1076,-0.1076,0,0,-0.0798,-0.0839,-0.0862,-0.0885,-0.0919,-0.0936,-0.0947,-0.0981,-0.1001,-0.104,-0.1047,-0.1069,-0.1107,-0.1114,-0.1126,-0.1164,-0.1141,-0.117,-0.1189,-0.1179,-0.1181,-0.1183,-0.116,-0.1159,-0.1171,-0.1171,-0.1171,0,-0.0793,-0.0839,-0.0868,-0.0897,-0.0921,-0.0943,-0.0966,-0.0995,-0.1031,-0.1051,-0.1054,-0.1112,-0.1124,-0.1159,-0.1169,-0.1176,-0.1157,-0.1171,-0.1184,-0.1185,-0.1186,-0.1162,-0.1161,-0.1174,-0.1173,-0.1173,-0.1173,0,-0.0814,-0.0855,-0.0872,-0.0919,-0.0944,-0.0967,-0.1006,-0.1034,-0.1067,-0.109,-0.1134,-0.1152,-0.1177,-0.1193,-0.1198,-0.1218,-0.1198,-0.1192,-0.117,-0.1192,-0.1165,-0.1163,-0.1177,-0.1176,-0.1175,-0.1175,0,0,-0.0797,-0.0869,-0.0881,-0.0904,-0.096,-0.0977,-0.1027,-0.1069,-0.1096,-0.1138,-0.1169,-0.1219,-0.122,-0.1231,-0.1239,-0.1239,-0.1238,-0.1221,-0.1219,-0.1196,-0.1202,-0.1105,-0.1093,-0.1232,-0.1232,-0.1232,-0.118,0,-0.0805,-0.0854,-0.0897,-0.0943,-0.0968,-0.1012,-0.1053,-0.1093,-0.1127,-0.1158,-0.1191,-0.1217,-0.1238,-0.1243,-0.1252,-0.1241,-0.1234,-0.1251,-0.1185,-0.1182,-0.1092,-0.1088,-0.1232,-0.1178,-0.1177,-0.1177,-0.1177,0,-0.0817,-0.085,-0.0892,-0.0953,-0.097,-0.1001,-0.1058,-0.1096,-0.1145,-0.1169,-0.1202,-0.1216,-0.1241,-0.1242,-0.1241,-0.125,-0.1228,-0.1217,-0.1214,-0.1104,-0.1081,-0.1151,-0.1172,-0.1172,-0.1173,-0.1173,-0.1173,0,-0.0782,-0.0852,-0.0883,-0.0906,-0.0973,-0.1003,-0.1041,-0.1096,-0.1123,-0.1164,-0.1167,-0.1208,-0.1205,-0.1211,-0.1202,-0.1216,-0.1177,-0.1189,-0.1081,-0.1074,-0.1159,-0.1158,-0.117,-0.117,-0.117,-0.117,-0.117,0,-0.0772,-0.0799,-0.0868,-0.0886,-0.0924,-0.0979,-0.1018,-0.1061,-0.1101,-0.1103,-0.116,-0.1141,-0.1193,-0.1181,-0.1186,-0.1118,-0.1163,-0.1073,-0.105,-0.1179,-0.1181,-0.1157,-0.1157,-0.1168,-0.1168,-0.1169,-0.1169,0,-0.0721,-0.0769,-0.0806,-0.0881,-0.0907,-0.0931,-0.1002,-0.1017,-0.1061,-0.1058,-0.1063,-0.1086,-0.1048,-0.1085,-0.1069,-0.1064,-0.1032,-0.0994,-0.1116,-0.1104,-0.0942,-0.0944,-0.0867,-0.0863,-0.086,-0.0857,-0.0855,0,-0.0703,-0.0713,-0.0792,-0.0816,-0.0851,-0.0898,-0.0925,-0.099,-0.0993,-0.0998,-0.0974,-0.0949,-0.0951,-0.0856,-0.0911,-0.0903,-0.0899,-0.0896,-0.0936,-0.0923,-0.0909,-0.0917,-0.0924,-0.085,-0.0849,-0.0848,-0.0847,0,-0.0658,-0.0685,-0.0714,-0.0763,-0.0797,-0.0829,-0.0866,-0.0855,-0.0893,-0.0934,-0.0842,-0.0814,-0.0756,-0.0757,-0.0752,-0.0756,-0.0916,-0.0861,-0.0869,-0.0906,-0.09,-0.0892,-0.0903,-0.0835,-0.0837,-0.0838,-0.0839,0,-0.0625,-0.0628,-0.0671,-0.0699,-0.0742,-0.0741,-0.0773,-0.0754,-0.0761,-0.0763,-0.0715,-0.0693,-0.0706,-0.0675,-0.0673,-0.0667,-0.0668,-0.0686,-0.0703,-0.0717,-0.0698,-0.0671,-0.0501,0,0,0,0,0,-0.0587,-0.0576,-0.0608,-0.0632,-0.0668,-0.0687,-0.0723,-0.0749,-0.0767,-0.0669,-0.0692,-0.0626,-0.0581,-0.0584,-0.0547,-0.0633,-0.0697,-0.0594,-0.0734,-0.0771,-0.0784,-0.0781,0,0,0,0,0,0,-0.0558,-0.0575,-0.058,-0.0565,-0.0564,-0.0589,-0.0603,-0.0619,-0.0576,-0.0592,-0.0562,-0.0589,-0.0556,-0.0569,-0.0525,-0.0533,-0.0612,-0.0599,-0.0598,-0.0763,-0.0776,-0.0786,-0.0787,0,0,0,0,0]},{"header":{"parameterUnit":"m.s-1","parameterCategory":2,"la1":30.2991,"la2":30.254,"lo1":-89.0895,"lo2":-89.0444,"dy":0.0017,"dx":0.0017,"nx":28,"ny":28,"refTime":"2025-06-07T09:00:00:Z","depth":"4","parameterNumber":3,"parameterNumberName":"V-component_of_CURRENTS"},"data":[0,0,0,0,0,0,0,0,0,0,0,0,0,0,0,0,0,0,0,0,0,0,0,0,0,0,0,0,0,0,0,0,0,0,0,0,0,0,0,0,0,0,0,0,0,0,0,0,0,0,0,0,0,0,0,0,0,0,-0.0181,-0.0181,0,-0.0176,-0.0176,-0.0176,-0.0163,-0.0163,-0.0163,-0.0163,-0.0139,-0.0139,-0.0139,0,0,0,0,0,0,0,0,0,0,0,0,0,-0.0193,-0.0193,-0.0181,-0.0181,-0.0181,-0.0176,-0.0176,-0.0176,-0.0163,-0.0163,-0.0163,-0.0162,-0.0139,-0.0139,-0.0139,0,0,0,0,0,0,0,0,0,0,0,0,0,-0.0188,-0.0193,-0.0181,-0.0174,-0.0173,-0.0176,-0.0176,-0.0176,-0.0164,-0.0163,-0.0163,-0.0162,-0.014,-0.0139,-0.0139,-0.0144,0,0,-0.0137,-0.0137,0,0,0,0,0,0,0,0,-0.0189,-0.0188,-0.0175,-0.0174,-0.0173,-0.0169,-0.0172,-0.0164,-0.0164,-0.0167,-0.0163,-0.0162,-0.0148,-0.0147,-0.0147,-0.0143,-0.0142,-0.0137,-0.0137,-0.0136,-0.0136,0,0,0,0,0,0,0,-0.0189,-0.0188,-0.0179,-0.0175,-0.0174,-0.0175,-0.0174,-0.017,-0.016,-0.0167,-0.0166,-0.0165,-0.0147,-0.0148,-0.0147,-0.0141,-0.0137,-0.0136,-0.0136,-0.0136,-0.0116,-0.0116,0,0,0,0,0,0,-0.0189,-0.0188,-0.0179,-0.0179,-0.018,-0.0175,-0.0174,-0.0171,-0.016,-0.0158,-0.0166,-0.0165,-0.0149,-0.0147,-0.0146,-0.0132,-0.0136,-0.0136,-0.0136,-0.0116,-0.0116,-0.0116,0,0,0,0,0,0,-0.0189,-0.0188,-0.0179,-0.0183,-0.0182,-0.0175,-0.0173,-0.0171,-0.017,-0.0159,-0.0157,-0.0165,-0.0149,-0.0146,-0.014,-0.0132,-0.0136,-0.0135,-0.0116,-0.0116,-0.0116,-0.0117,0,0,0,0,0,0,-0.0189,-0.0188,-0.0191,-0.0183,-0.0182,-0.0182,-0.0173,-0.0172,-0.017,-0.0168,-0.0158,-0.0155,-0.0148,-0.0141,-0.014,-0.0131,-0.0135,-0.0117,-0.0116,-0.0116,-0.0117,-0.0117,-0.0117,0,0,0,0,0,-0.019,-0.0191,-0.0191,-0.019,-0.0184,-0.0182,-0.0182,-0.0176,-0.017,-0.0172,-0.0163,-0.0156,-0.0137,-0.0141,-0.0139,-0.013,-0.0117,-0.0116,-0.0116,-0.0118,-0.0117,-0.0117,0,0,0,0,0,0,-0.0195,-0.0189,-0.0189,-0.0188,-0.0187,-0.018,-0.0181,-0.0177,-0.0172,-0.0172,-0.0158,-0.0155,-0.0145,-0.014,-0.0144,-0.0123,-0.0124,-0.0123,-0.0126,-0.0125,-0.0125,-0.0124,-0.0134,0,0,0,0,0,-0.0199,-0.0201,-0.0195,-0.0196,-0.0194,-0.0189,-0.0188,-0.0187,-0.018,-0.0177,-0.0167,-0.0156,-0.0143,-0.0136,-0.0129,-0.0121,-0.0107,-0.0113,-0.0112,-0.0112,-0.011,-0.0074,-0.0069,-0.0114,-0.0114,-0.0114,0,0,-0.0205,-0.02,-0.0203,-0.0199,-0.0196,-0.02,-0.0187,-0.0189,-0.0189,-0.0176,-0.017,-0.0158,-0.0142,-0.0131,-0.0125,-0.0124,-0.0094,-0.0111,-0.0111,-0.0109,-0.0072,-0.0068,-0.0064,-0.0114,-0.0114,-0.0114,0,0,-0.0216,-0.0209,-0.0216,-0.0216,-0.0216,-0.0211,-0.0211,-0.0205,-0.0197,-0.0193,-0.0178,-0.0156,-0.0148,-0.0125,-0.0114,-0.0107,-0.0095,-0.0109,-0.0103,-0.0068,-0.0063,-0.0059,-0.0047,-0.0041,-0.0106,-0.0106,-0.0106,0,-0.0221,-0.0231,-0.0219,-0.0226,-0.0228,-0.0215,-0.0226,-0.0215,-0.0208,-0.0199,-0.0192,-0.0158,-0.014,-0.0113,-0.0106,-0.0104,-0.0094,-0.0106,-0.0066,-0.0062,-0.0058,-0.0046,-0.004,-0.0106,-0.0106,-0.0106,-0.0106,0,-0.0244,-0.025,-0.0252,-0.0256,-0.0256,-0.0263,-0.0248,-0.0243,-0.0229,-0.0214,-0.0188,-0.0158,-0.0137,-0.0121,-0.011,-0.0074,-0.0081,-0.0072,-0.0067,-0.0054,-0.0042,-0.0036,-0.0106,-0.0106,-0.0106,-0.0106,0,0,-0.025,-0.0266,-0.0267,-0.0278,-0.0275,-0.0277,-0.027,-0.0258,-0.0254,-0.0223,-0.0212,-0.0161,-0.0141,-0.0127,-0.0104,-0.0063,-0.0022,-0.0057,-0.0055,-0.0044,0.0037,0.0056,0.0064,-0.0009,-0.0007,-0.0006,0.003,0,-0.0271,-0.0297,-0.0296,-0.0317,-0.0325,-0.0313,-0.0308,-0.0294,-0.0274,-0.026,-0.0204,-0.0187,-0.0144,-0.0139,-0.0087,-0.0048,-0.0005,-0.0034,0.0022,0.0024,0.004,0.0073,-0.0002,0.0035,0.0036,0.0037,0.0038,0,-0.0288,-0.0304,-0.0334,-0.0349,-0.0351,-0.036,-0.0355,-0.035,-0.0317,-0.0301,-0.0261,-0.0232,-0.0172,-0.0141,-0.004,-0.0065,-0.0011,0.0031,0.0033,0.0058,0.0055,0.0022,0.0049,0.0048,0.0047,0.0046,0.0046,0,-0.0299,-0.0324,-0.0352,-0.0359,-0.0374,-0.038,-0.0382,-0.0361,-0.0356,-0.0331,-0.0328,-0.0257,-0.0232,-0.0144,-0.0049,-0.005,0.0056,0.0063,0.0134,0.0135,0.0105,0.0101,0.0146,0.0146,0.0146,0.0146,0.0146,0,-0.0315,-0.0335,-0.0363,-0.0379,-0.0404,-0.0403,-0.0418,-0.041,-0.0399,-0.0385,-0.035,-0.0325,-0.0229,-0.0159,-0.0066,0.0053,0.0047,0.0144,0.0156,0.0101,0.0096,0.0109,0.0104,0.0147,0.0147,0.0147,0.0146,0,-0.0322,-0.0343,-0.0373,-0.0401,-0.0411,-0.0426,-0.0443,-0.0447,-0.0441,-0.0427,-0.0422,-0.0376,-0.0284,-0.0185,-0.0056,0.0025,0.0135,0.0181,0.0099,0.0103,0.0189,0.0184,0.0257,0.0258,0.0259,0.026,0.0261,0,-0.0329,-0.0348,-0.0389,-0.0407,-0.0423,-0.0447,-0.0458,-0.0463,-0.046,-0.0439,-0.0427,-0.0368,-0.0313,-0.0128,-0.0028,0.0132,0.0168,0.021,0.0227,0.0202,0.0206,0.0199,0.0192,0.0263,0.0263,0.0263,0.0263,0,-0.0341,-0.0357,-0.0385,-0.042,-0.0444,-0.0467,-0.0481,-0.0481,-0.047,-0.0471,-0.0403,-0.0319,-0.0226,-0.0104,0.0009,0.0133,0.0174,0.0222,0.0221,0.0236,0.0209,0.0211,0.0203,0.0267,0.0266,0.0266,0.0266,0,-0.0347,-0.0368,-0.0403,-0.0432,-0.0463,-0.0477,-0.0482,-0.0463,-0.0458,-0.042,-0.0393,-0.03,-0.0252,-0.0103,0.0013,0.0121,0.0156,0.0201,0.0201,0.0199,0.0176,0.0133,0.0188,0,0,0,0,0,-0.0354,-0.0384,-0.041,-0.0451,-0.0477,-0.0494,-0.0494,-0.0491,-0.0475,-0.0414,-0.0398,-0.0296,-0.0136,-0.0088,0.0028,0.0022,0.0157,0.016,0.0205,0.0287,0.0283,0.027,0,0,0,0,0,0,-0.0369,-0.04,-0.0414,-0.0455,-0.0484,-0.0513,-0.0511,-0.0496,-0.0452,-0.0419,-0.0336,-0.0275,-0.0131,-0.021,0.0021,0.005,0.0097,0.0231,0.0234,0.0289,0.0285,0.0282,0.0267,0,0,0,0,0]}]]